Regional Weather Roundup
Issued by NWS Charleston, SC

Current Version | Previous Version | Graphics & Text | Print | Product List | Glossary On
Versions: 1 2 3 4 5 6 7 8 9 10 11 12 13 14 15 16 17 18 19 20 21 22 23 24 25 26 27 28 29 30 31 32 33 34 35 36 37 38 39 40 41 42 43 44 45 46 47 48 49 50
000 ASUS42 KCHS 081912 RWRCHS REGIONAL WEATHER ROUNDUP NATIONAL WEATHER SERVICE CHARLESTON SC 200 PM EST MON FEB 08 2016 NOTE: "FAIR" INDICATES FEW OR NO CLOUDS BELOW 12,000 FEET WITH NO SIGNIFICANT WEATHER AND/OR OBSTRUCTIONS TO VISIBILITY. NOT ALL STATIONS ARE QUALITY CONTROLLED BY THE NATIONAL WEATHER SERVICE. USE DATA WITH CAUTION...ESPECIALLY DEWPOINT OBSERVATIONS. NOTICE: OBSERVATIONS FOR THE SAVANNAH-HILTON HEAD INTERNATIONAL AIRPORT /KSAV/ HAVE BEEN TEMPORARILY REMOVED DUE TO AN ERRONEOUS TEMPERATURE SENSOR. THE OBSERVATION WILL BE REINTRODUCED ONCE REPAIRS ARE COMPLETE. SCZ027-030-031-034>040-042>050-082000- ...SOUTHEAST SOUTH CAROLINA... CITY SKY/WX TMP DP RH WIND PRES REMARKS N CHARLESTON MOSUNNY 61 31 32 SW15 29.76F WATERFRONT PRK N/A 57 32 38 SW7 29.64F MOUNT PLEASANT FAIR 61 37 41 S16G24 29.77F JOHNS ISLAND FAIR 57 41 54 S15 29.78F PINOPOLIS N/A 57 34 41 SW7 29.66F MONCKS CORNER FAIR 57 27 30 SW9G17 29.75F SUMMERVILLE FAIR 61 32 33 W14G23 29.76F BEAUFORT MCAS SUNNY 62 32 32 SW14G24 29.78F BEAUFORT ARPT FAIR 61 32 33 SW12G21 29.78F HILTON HEAD IS SUNNY 57 39 51 S8G18 29.81F WALTERBORO CLEAR 61 32 33 SW10G20 29.76F ALLENDALE FAIR 61 30 31 S9G20 29.72F ...SOUTHERN MIDLANDS AND PEE DEE... CITY SKY/WX TMP DP RH WIND PRES REMARKS GEORGETOWN NOT AVBL KINGSTREE NOT AVBL ORANGEBURG SUNNY 60 30 32 SW13G26 29.71F BARNWELL FAIR 63 32 31 SW14G23 29.72F AIKEN CLOUDY 55 30 38 SW15G21 29.72F MANNING FAIR 57 30 35 S15G21 29.73F COLUMBIA PTSUNNY 59 28 30 SW14G25 29.68F SUMTER SUNNY 61 31 32 SW17G24 29.67F FLORENCE SUNNY 58 29 33 SW18 29.71F MYRTLE BEACH SUNNY 54 37 54 S17 29.78F N MYRTLE BEACH SUNNY 52 39 61 S15 29.76F $$ GAZ063-065-086>088-099>101-113>116-118-119-134>141-150-082000- ...SOUTHEAST GEORGIA... CITY SKY/WX TMP DP RH WIND PRES REMARKS SAVANNAH ARPT MOSUNNY 63 28 26 SW17G24 29.78F HUNTER AAF SUNNY 63 33 32 SW14 29.77F FORT STEWART SUNNY 62 29 29 SW14G31 29.76F STATESBORO SUNNY 65 20 17 W10G21 29.76F SYLVANIA CLEAR 62 36 37 W14G20 29.75F CLAXTON FAIR 62 37 39 SW12G21 29.78F ...CSRA...CENTRAL AND FAR SOUTHEAST GEORGIA... CITY SKY/WX TMP DP RH WIND PRES REMARKS THOMSON CLOUDY 52 38 60 W7G24 29.81S AUGUSTA-BUSH CLOUDY 59 31 34 W16G26 29.71F AUGUSTA-DANIEL CLOUDY 57 31 37 MISG 29.72F SWAINSBORO MOCLDY 61 30 31 SW16G24 29.75F VIDALIA SUNNY 61 32 33 SW17G24 29.77F EASTMAN CLOUDY 61 33 35 SW16G25 29.79F HAZLEHURST FAIR 64 33 32 SW12G23 29.78F ALMA SUNNY 61 32 33 SW18G26 29.80F WAYCROSS SUNNY 66 36 32 W14G24 29.81F JESUP FAIR 64 36 34 SW13G23 29.81F BAXLEY FAIR 63 32 31 SW17G25 29.79F BRUNSWICK SUNNY 63 32 31 SW18G24 29.84F SAINT SIMONS SUNNY 62 31 31 SW18G28 29.84F $$ SCZ027-028-034-036>038-045-046-048>050-GAZ119-141-082000- ...LAKE AND SUPPLEMENTAL COASTAL OBSERVATIONS... STATION/POSITION TIME TEMP WIND PRES WAVE SWELL AIR SEA DIR/SP/G HT/PER HT/PER/DIR (UTC) (F) (DEG/KT/KT) (MB) (FT/S) (FT/S/D) WINYAH BAY NOT AVBL LAKE MURRAY 1800 56 230/ 12/ 19 1005.8F ACE BASIN NERRS 1745 57 230/ 4 1010.0 FORT PULASKI 1800 58 52 220/ 10/ 15 1010.7F SAPELO ISLAND 1800 58 240/ 18 1011.0F $$ ANZ835-935-AMZ111-154-330-350-352-354-370-450-454-472-082000- ...C-MAN AND BUOY OBSERVATIONS... STATION/POSITION TIME TEMP WIND PRES WAVE SWELL AIR SEA DIR/SP/G HT/PER HT/PER/DIR (UTC) (F) (DEG/KT/KT) (MB) (FT/S) (FT/S/D) BUOY 41004 1850 57 65 240/ 19/ 25 1009.1F 6/ 6 3/16 BUOY 41008 1850 54 55 190/ 17/ 21 1010.5F 3/16 2/200/16 FOLLY BEACH CMAN 1800 53 220/ 15/ 17 1010.1F CAPERS NEARSHORE 1808 52 230/ 16/ 21 1009.0F FRIPP NEARSHORE 1800 53 220/ 16/ 17 1010.3F STATION/POSITION TIME TEMP WIND PRES WAVE SWELL AIR SEA DIR/SP/G HT/PER HT/PER/DIR (UTC) (F) (DEG/KT/KT) (MB) (FT/S) (FT/S/D) 5E ST. MARYS GA 1821 55 N/A 3/15 2/ 90/15 FRYING PAN BUOY 1800 53 60 190/ 6/ 12 1009.5F BUOY 41025 1850 45 72 280/ 6/ 10 1008.5R 14/15 15/ 70/15 CAPE LOOKOUT NC NOT AVBL BUOY 41002 1850 60 69 280/ 17/ 23 N/A 15/10 11/330/10 BUOY 41010 1820 62 73 1014.9F ST AUGUSTINE FL 1900 62 58 240/ 14/ 21 1013.3F $$

USA.gov is the U.S. government's official web portal to all federal, state and local government web resources and services.